Regional Weather Roundup
Issued by NWS Nashville, TN

Home | Current Version | Previous Version | Text Only | Print | Product List | Glossary On
Versions: 1 2 3 4 5 6 7 8 9 10 11 12 13 14 15 16 17 18 19 20 21 22 23 24 25 26
000
ASUS44 KOHX 270910
RWROHX
MIDDLE TENNESSEE HOURLY WEATHER ROUNDUP
NATIONAL WEATHER SERVICE NASHVILLE TN
400 AM CDT FRI MAY 27 2016

NOTE: "FAIR" INDICATES FEW OR NO CLOUDS BELOW 12,000 FEET WITH
NO SIGNIFICANT WEATHER AND/OR OBSTRUCTIONS TO VISIBILITY.

* THESE REPORTS ARE NOT UNDER NWS QUALITY CONTROL AND MAY NOT
  REPORT WEATHER SUCH AS PRECIPITATION AND FOG.


TNZ005>011-023>034-057-059-062>066-078-080-271000
...NORTHERN MIDDLE TENNESSEE...

CITY           SKY/WX    TMP DP  RH WIND       PRES   REMARKS
CLARKSVILLE    MOCLDY    65  64  97 CALM      29.98F
CROSSVILLE     CLEAR     63  59  87 CALM      30.10R
DICKSON        MOCLDY    64  63  94 E3        29.99S
LEBANON        PTCLDY    62  62 100 CALM      30.00S
NASHVILLE      MOCLDY    66  63  90 CALM      30.01R
SMYRNA         CLEAR     64  64 100 CALM      30.02R
SPARTA         CLEAR     61  59  94 CALM      30.04S
$$
TNZ056-058-060-061-075>077-079-093>097-271000
...SOUTHERN MIDDLE TENNESSEE...

CITY           SKY/WX    TMP DP  RH WIND       PRES   REMARKS
COLUMBIA       CLEAR    N/A N/A N/A CALM      29.99R
LEWISBURG      PTCLDY    60  60 100 CALM      30.01R
MCMINNVILLE    CLEAR     63  63 100 CALM      30.04S
SHELBYVILLE    CLEAR     68  63  83 CALM      30.03R
TULLAHOMA      CLEAR     66  64  94 S7        30.05R
WINCHESTER     CLEAR     64  61  88 E3        30.05R
$$


...KEY TO REMARKS...
VSB - VISIBILITY IN MILES
WCI - WIND CHILL INDEX
HX  - HEAT INDEX





USA.gov is the U.S. government's official web portal to all federal, state and local government web resources and services.